DELTA 1 DEB, 7133

Orbit data source: Space-Track

DELTA 1 DEB, 7133 is space debris in SSO originally from a launch on Tue, 06 Nov 1973 UTC launched from the Air Force Western Test Range (AFWTR). Debris objects in space refer to the collection of defunct objects orbiting the Earth. Examples of debris include non-operational satellites, rocket bodies, and fragments generated from explosions, collisions, or faulty payload assembly.

Loading next visibility...
Identifier
7133, 1973-086CX
Orbit
SSO
Country
Flag of USUS
Related business
Manufacturer
Unknown
Mission
Spacecraft
Bus & Motor
Unknown
Mass
Unknown
Launch date (UTC)
1973-11-06 (53 years ago)
Launch vehicle
Unknown
Launch site
Air Force Western Test Range (AFWTR)
Object type
Payload
Rocket body
Debris
Shape & HBR
Unknown shape, 0.1 m
Radar Cross Section
Medium (>0.1 m² and <1 m²)

Expand to show TLE details & history
Last TLE update: 18 hours ago

TLE from 18 hours ago
0 DELTA 1 DEB
1 07133U 73086CX  26237.05665260  .00000132  00000-0  12788-2 0  9992
2 07133 101.6653 268.7550 0037426 190.7147 196.7939 12.41609218388896
Epoch: 2026-08-25T01:21Z
TLE epoch observation values (Epoch: 2026-08-25T01:21:34.784Z)
Latitude
26.80975°
Longitude
-90.92893°
Altitude
1,530.997 km
Speed
7.09 km/s
True Right ascension
17h 31m 10s
True Declination
26° 41' 06"
Sunlit
Object was in daylight at epoch
Visualization orbit readout
Latitude
Unknown
Longitude
Unknown
Altitude
Unknown
Speed
Unknown
Apparent Right ascension
Unknown
Apparent Declination
Unknown
Sunlit
N/A
Visualization observer readout
Local Sidereal Time
10:34:07
Azimuth
Unknown
Elevation
Unknown
Doppler factor
Unknown
Orbital elements
Apogee altitude
1,526.817 km
Perigee altitude
1,467.867 km
Semi-major axis
7,875.479 km
Eccentricity
0.00374
Inclination
101.6653°
RAAN
268.755°
Arg. of periapsis
190.7147°
True anomaly
196.67054°
Mean anomaly
196.7939°
Eccentric anomaly
196.73216°
Mean motion
3.10547 °/min
Orbital period
115.92 mins
BSTAR
0.0012788
Loading maneuver chart data...
Computing Atmospheric mass density...
Loading historical data...
Loading historical data...
Loading historical data...
Loading historical data...
Loading historical data...
Loading historical data...
Loading historical data...

Documentation

Showing up to 5 results
|